Home   Weather   Anchorage   Past weeks

Flag for USA Past Weather in Anchorage, Alaska, USA — Yesterday and Last 2 Weeks

Now
-8 °F

Ice fog.


Feels Like: -17 °F
Forecast: -16 / -5 °F
Wind: 3 mph from Southwest

Location: Lake Hood Seaplane

Current Time: Jan 19, 2017 at 12:55:35 pm

Latest Report: Jan 19, 2017 at 11:53 am


Visibility: 1 mi

Pressure: 29.48 "Hg

Humidity: 83%

Dew Point: -12 °F

Location of AnchorageLocation

Past Weather in Anchorage — Graph

°F

Anchorage Temperature Yesterday

Maximum temperature yesterday: -4 °F (at 12:53 pm)
Minimum temperature yesterday: -13 °F (at 9:53 am)
Average temperature yesterday: -7 °F

High & Low Weather Summary for the Past Weeks

 TemperatureHumidityPressure
High27 °F (Jan 14, 10:03 am)92% (Jan 4, 11:01 am)30.78 "Hg (Jan 4, 11:01 am)
Low-14 °F (Jan 19, 4:53 am)42% (Jan 7, 12:53 am)28.77 "Hg (Jan 16, 2:53 pm)
Average7 °F81%29.76 "Hg
* Reported Jan 4 11:01 am — Jan 19 11:14 am, Anchorage, Weather by CustomWeather, © 2017

Note: Actual official high and low records may vary slightly from our data, if they occured in-between our weather recording intervals... More about our weather records

Advertising

Anchorage Weather History for the Previous 24 Hours

Scroll right to see more
 ConditionsComfort  
Time TempWeatherWind HumidityBarometerVisibility
11:14 am
Thu, Jan 19
-7 °FLow clouds.5 mph79%29.46 "Hg1 mi
10:53 am-3 °FHeavy snow. Ice fog.No wind78%29.46 "Hg0 mi
10:18 am-3 °FLight snow. Ice fog.10 mph82%29.44 "Hg0 mi
9:53 am-6 °FIce fog.5 mphN/A29.43 "Hg1 mi
9:29 am-11 °FPassing clouds.3 mph74%29.42 "Hg1 mi
9:13 amN/APassing clouds.No windN/A29.42 "Hg10 mi
8:53 am-9 °FPassing clouds.No wind74%29.41 "Hg10 mi
7:53 am-7 °FLow clouds.No wind83%29.40 "Hg9 mi
7:32 am-6 °FLow clouds.No wind78%29.39 "Hg2 mi
6:53 amN/APassing clouds.3 mphN/A29.39 "Hg2 mi
5:53 am-14 °FClear.No wind74%29.37 "Hg10 mi
4:53 am-14 °FClear.No wind82%29.37 "Hg9 mi
4:14 am-12 °FPassing clouds.No wind74%29.36 "Hg6 mi
4:00 amN/APassing clouds.No windN/A29.36 "Hg7 mi
3:20 am-9 °FIce fog.No wind91%29.34 "Hg0 mi
2:59 am-9 °FIce fog.No wind87%29.34 "Hg1 mi
2:03 am-11 °FLow clouds.5 mph74%29.33 "Hg4 mi
1:18 am-5 °FLight snow. Low clouds.3 mphN/A29.32 "Hg1 mi
12:58 am-3 °FIce fog.No wind82%29.31 "Hg3 mi
12:41 am-4 °FIce fog.No wind86%29.31 "Hg1 mi
12:14 am-5 °FIce fog.No wind87%29.30 "Hg0 mi
12:05 am-5 °FIce fog.No wind83%29.29 "Hg2 mi
11:53 pm
Wed, Jan 18
-6 °FIce fog.3 mphN/A29.29 "Hg3 mi
11:39 pm-6 °FIce fog.No windN/A29.29 "Hg3 mi
11:16 pm-7 °FIce fog.3 mph83%29.28 "Hg2 mi
10:53 pm-8 °FIce fog.No wind83%29.28 "Hg5 mi
9:53 pm-9 °FLow clouds.3 mph78%29.28 "Hg10 mi
9:29 pm-12 °FPassing clouds.5 mph81%29.27 "Hg10 mi
9:06 pm-9 °FPassing clouds.No wind78%29.27 "Hg7 mi
8:01 pm-8 °FPassing clouds.3 mph83%29.27 "Hg10 mi
6:53 pm-7 °FLow clouds.No wind83%29.27 "Hg9 mi
6:21 pm-7 °FPassing clouds.No wind79%29.27 "Hg10 mi
5:53 pm-9 °FClear.No wind78%29.27 "Hg10 mi
4:53 pm-7 °FClear.3 mph79%29.28 "Hg10 mi
3:53 pm-4 °FSunny.No wind71%29.28 "Hg10 mi
2:53 pm-4 °FSunny.3 mph79%29.28 "Hg10 mi
1:53 pm-4 °FSunny.3 mph79%29.28 "Hg10 mi
12:53 pm-4 °FSunny.No windN/A29.29 "Hg10 mi
Weather by CustomWeather, © 2017

See weather overviewHow to use our weather pages